User: anonymous   Login
Location: Ostrava
(49.8330°N, 18.2830°E)
Time: 08:17:51
(UTC+01:00)
Language:

Cosmos 2221 - Orbit

View from above orbital plane
View from above orbital plane
View from above satellite
View from above satellite

Ground track
Ground track

The orbit data is extracted from the following two-line orbital elements,

1 22236U 92080A   17349.82757406 +.00000204 +00000-0 +19582-4 0  9992
2 22236 082.5093 247.6908 0018073 114.7512 245.5588 14.87676007333282
Epoch (UTC): 15 December 2017 19:51:42
Eccentricity: 0.0018073
inclination: 82.5093°
perigee height: 592 km
apogee height: 618 km
right ascension of ascending node: 247.6908°
argument of perigee: 114.7512°
revolutions per day: 14.87676007
mean anomaly at epoch: 245.5588°
orbit number at epoch: 33328

The dashed part of the orbit path shows where the satellite is in the earth's shadow,  

DLR